Regional Weather Roundup
Issued by NWS

Home | Current Version | Previous Version | Text Only | Print | Product List | Glossary On
Versions: 1 2 3 4 5 6 7 8 9 10 11 12 13 14 15 16 17 18 19 20 21 22 23 24 25 26 27 28 29 30 31 32 33 34 35 36 37 38 39 40 41 42 43 44 45 46 47 48 49 50
000
ASUS44 KLIX 042012
RWRLA
LOUISIANA WEATHER ROUNDUP
NATIONAL WEATHER SERVICE NEW ORLEANS LA
300 PM CDT TUE AUG 04 2015

NOTE: "FAIR" INDICATES FEW OR NO CLOUDS BELOW 12,000 FEET WITH NO
      SIGNIFICANT WEATHER AND/OR OBSTRUCTIONS TO VISIBILITY.
      SKY/WX - SKY CONDITION AND SIGNIFICANT WEATHER.
      TMP - AIR TEMPERATURE.    DP   - DEWPOINT TEMPERATURE.
      RH  - RELATIVE HUMIDITY.  PRES - PRESSURE.
      HX  - HEAT INDEX.         WCI  - WIND CHILL INDEX.

*  THESE STATIONS ARE NOT NWS OR FAA STATIONS AND ARE NOT UNDER
   NWS QUALITY CONTROL.

LAZ040-048-061>063-065-066-069-042100-
SOUTHEAST LOUISIANA

CITY           SKY/WX    TMP DP  RH WIND       PRES   REMARKS
N.O. AUDUBON     N/A     87  80  78 MISG        N/A  HX 103
N.O. INTL ARPT PTSUNNY   89  77  67 S12       29.95F HX 101
N.O. LAKEFRONT CLOUDY    85  74  69 SE10      29.97F
N.O. DOWNTOWN* CLOUDY    88  77  70 SE6       29.97F HX 100
RESERVE*       FAIR      93  75  55 NE10      29.95S HX 104
SLIDELL        PTSUNNY   88  76  67 VRB7      29.97F HX  99
BATON ROUGE    MOSUNNY   96  71  44 VRB5      29.94F HX 103
BOOTHVILLE     MOSUNNY   86  75  69 S13       30.00F HX  95
BELLE CHASSE   LGT RAIN  84  79  85 S6        29.95F HX  96
BOGALUSA*      TSTM      80  72  76 S8        30.00S
GALLIANO*      MOCLDY    89  77  68 SW16      29.96F HX 100
NEW ROADS*     FAIR     N/A N/A N/A CALM      29.95F
GONZALES*      FAIR      93  74  53 CALM      29.94F HX 102
HAMMOND*       SUNNY     95  70  43 SE9       29.97F HX 101
HOUMA*         MOSUNNY   90  77  66 SW7       29.95F HX 102
PORT FOURCHON* CLEAR     86  73  66 SW17      29.98F

$$

LAZ041-044-053-054-042100-
SOUTHWEST LOUISIANA

CITY           SKY/WX    TMP DP  RH WIND       PRES   REMARKS
LAKE CHARLES   PTSUNNY   97  68  38 SE7       29.95F HX 102
LAFAYETTE      MOSUNNY   97  69  40 N6        29.95F HX 103
PATTERSON      SUNNY     91  75  59 N5        29.96S HX 102
SALT POINT       N/A     91  75  59 MISG      29.95S HX 101
NEW IBERIA     MOSUNNY   95  70  44 N8        29.95F HX 101
CHENAULT AIRPK NOT AVBL

$$

LAZ027-028-042100-
CENTRAL LOUISIANA

CITY           SKY/WX    TMP DP  RH WIND       PRES   REMARKS
FORT POLK      SUNNY     95  69  42 SE3       29.94F HX 100
ALEXANDRIA INT MOSUNNY   96  67  38 VRB5      29.93F HX 100
ALEXANDRIA     MOSUNNY   95  72  47 S5        29.95F HX 103

$$

LAZ001-002-042100-
NORTHWEST LOUISIANA

CITY           SKY/WX    TMP DP  RH WIND       PRES   REMARKS
SHREVEPORT     PTSUNNY   97  63  32 CALM      29.94F HX  98
BARKSDALE AFB  MOSUNNY   99  63  30 VRB5      29.94F HX 100
DTN SHREVEPORT MOSUNNY   98  64  32 SE8       29.94F HX 100

$$

LAZ014-016-042100-
NORTHEAST LOUISIANA

CITY           SKY/WX    TMP DP  RH WIND       PRES   REMARKS
MONROE         PTSUNNY   97  69  40 N5        29.95F HX 103
TALLULAH       SUNNY     98  64  32 E6        29.95F HX 100

$$



USA.gov is the U.S. government's official web portal to all federal, state and local government web resources and services.